Naples, Italy

2:08 AM CET on March 25, 2017 (GMT +0100)
Naples

Weather History for 16289 - August, 2014

Change the Weather History Date:

Sunday, August 3, 2014

  Actual Average Record
Temperature  
Mean Temperature 80 °F -  
Max Temperature 89 °F 84 °F - ()
Min Temperature 72 °F 64 °F - ()
Cooling Degree Days 16    
Growing Degree Days 30 (Base 50)    
Moisture  
Dew Point 67 °F    
Average Humidity 66    
Maximum Humidity 88    
Minimum Humidity 33    
Precipitation  
Precipitation 0.00 in 0.06 in - ()
Sea Level Pressure  
Sea Level Pressure 29.93 in    
Wind  
Wind Speed 4 mph ()    
Max Wind Speed 9 mph    
Max Gust Speed -    
Visibility 8.5 miles    
Events      
T = Trace of Precipitation, MM = Missing Value Source: Averaged Metar Reports

Daily Weather History Graph

Daily Weather History Graph

Search for Another Location

Airport or City:

Trip Planner

Search our weather history database for the weather conditions in past years. The results will help you decide how hot, cold, wet, or windy it might be!

Date:

Astronomy

Aug. 03, 2014 Rise Set
Actual Time 6:00 AM CEST 8:16 PM CEST
Civil Twilight 5:30 AM CEST 8:47 PM CEST
Nautical Twilight 4:52 AM CEST 9:24 PM CEST
Astronomical Twilight 4:10 AM CEST 10:06 PM CEST
Moon 1:07 PM CEST (8/3) 11:58 PM CEST (8/3)
Length of Visible Light 15h 17m
Length of Day
14h 15m
Waxing Crescent, 44% of the Moon is Illuminated
Aug 3
Waxing Crescent
Aug 4
First Quarter
Aug 10
Full
Aug 17
Last Quarter
Aug 25
New

Hourly Weather History & Observations

Time (CEST) Temp. Heat Index Dew Point Humidity Pressure Visibility Wind Dir Wind Speed Gust Speed Precip Events Conditions
12:20 AM 75.2 °F - 69.8 °F 83% 29.92 in - Variable 2.3 mph - N/A   Clear
1:20 AM 73.4 °F - 68.0 °F 83% 29.92 in - Variable 2.3 mph - N/A   Clear
1:50 AM 75.2 °F - 69.8 °F 83% 29.92 in - Variable 2.3 mph - N/A   Clear
2:00 AM 74 °F - 69 °F 78% 29.93 in 6 mi South 1.2 mph - -  
2:20 AM 73.4 °F - 68.0 °F 83% 29.92 in - SW 3.5 mph - N/A   Clear
2:50 AM 73.4 °F - 68.0 °F 83% 29.95 in - Variable 2.3 mph - N/A   Clear
3:20 AM 73.4 °F - 68.0 °F 83% 29.95 in - WNW 3.5 mph - N/A   Clear
4:20 AM 71.6 °F - 68.0 °F 88% 29.95 in - NE 3.5 mph - N/A   Clear
4:50 AM 73.4 °F - 68.0 °F 83% 29.92 in - ENE 3.5 mph - N/A   Clear
5:00 AM 73 °F - 69 °F 82% 29.94 in 6 mi North 2.3 mph - -  
5:20 AM 73.4 °F - 68.0 °F 83% 29.95 in - North 2.3 mph - N/A   Clear
6:20 AM 73.4 °F - 68.0 °F 83% 29.95 in 6.2 mi SW 4.6 mph - N/A   Scattered Clouds
6:50 AM 73.4 °F - 68.0 °F 83% 29.95 in 6.2 mi Variable 2.3 mph - N/A   Scattered Clouds
7:50 AM 75.2 °F - 69.8 °F 83% 29.92 in 6.2 mi Variable 2.3 mph - N/A   Scattered Clouds
8:00 AM 75 °F - 69 °F 77% 29.94 in 16 mi NE 4.6 mph - -   Partly Cloudy
8:20 AM 75.2 °F - 69.8 °F 83% 29.95 in 6.2 mi NE 4.6 mph - N/A   Scattered Clouds
8:50 AM 75.2 °F - 69.8 °F 83% 29.98 in 6.2 mi WNW 5.8 mph - N/A   Light Drizzle
9:20 AM 78.8 °F - 68.0 °F 69% 29.98 in 6.2 mi NW 4.6 mph - N/A   Scattered Clouds
9:50 AM 78.8 °F - 68.0 °F 69% 29.95 in 6.2 mi East 4.6 mph - N/A   Scattered Clouds
10:20 AM 80.6 °F 82.7 °F 66.2 °F 61% 29.95 in 6.2 mi ESE 4.6 mph - N/A   Scattered Clouds
10:50 AM 82.4 °F 84.6 °F 66.2 °F 58% 29.95 in 6.2 mi Variable 2.3 mph - N/A   Partly Cloudy
11:00 AM 84 °F - 64 °F 42% 29.95 in 16 mi SE 1.2 mph - -   Scattered Clouds
11:20 AM 84.2 °F 87.3 °F 68.0 °F 58% 29.95 in 6.2 mi Variable 5.8 mph - N/A   Scattered Clouds
11:50 AM 82.4 °F 84.6 °F 66.2 °F 58% 29.95 in 6.2 mi South 5.8 mph - N/A   Scattered Clouds
12:20 PM 82.4 °F 84.6 °F 66.2 °F 58% 29.95 in 6.2 mi SSW 5.8 mph - N/A   Scattered Clouds
12:50 PM 84.2 °F 87.3 °F 68.0 °F 58% 29.95 in 6.2 mi South 4.6 mph - N/A   Scattered Clouds
1:20 PM 84.2 °F 86.6 °F 66.2 °F 55% 29.95 in 6.2 mi Variable 3.5 mph - N/A   Partly Cloudy
1:50 PM 86.0 °F 88.2 °F 66.2 °F 51% 29.92 in 6.2 mi Variable 4.6 mph - N/A   Partly Cloudy
2:20 PM 87.8 °F 87.6 °F 60.8 °F 40% 29.92 in - WNW 5.8 mph - N/A   Clear
2:50 PM 87.8 °F 86.1 °F 55.4 °F 33% 29.92 in - NNW 5.8 mph - N/A   Clear
3:20 PM 87.8 °F 86.5 °F 57.2 °F 35% 29.92 in - North 4.6 mph - N/A   Clear
3:50 PM 86.0 °F 87.3 °F 64.4 °F 48% 29.92 in - South 9.2 mph - N/A   Clear
4:20 PM 86.0 °F 87.3 °F 64.4 °F 48% 29.89 in - South 8.1 mph - N/A   Clear
4:50 PM 86.0 °F 88.2 °F 66.2 °F 51% 29.89 in - SSW 8.1 mph - N/A   Clear
5:00 PM 86 °F - 66 °F 41% 29.90 in 19 mi South 5.8 mph - -  
5:20 PM 86.0 °F 88.2 °F 66.2 °F 51% 29.89 in - South 5.8 mph - N/A   Clear
5:50 PM 86.0 °F 89.4 °F 68.0 °F 55% 29.89 in - Variable 4.6 mph - N/A   Clear
6:20 PM 84.2 °F 87.3 °F 68.0 °F 58% 29.89 in 6.2 mi WNW 9.2 mph - N/A   Partly Cloudy
6:50 PM 82.4 °F 85.4 °F 68.0 °F 62% 29.89 in 6.2 mi WNW 9.2 mph - N/A   Partly Cloudy
7:20 PM 82.4 °F 84.6 °F 66.2 °F 58% 29.89 in 6.2 mi WNW 9.2 mph - N/A   Partly Cloudy
7:50 PM 80.6 °F 82.7 °F 66.2 °F 61% 29.89 in - WNW 9.2 mph - N/A   Clear
8:00 PM 80 °F - 66 °F 53% 29.90 in 19 mi WNW 9.2 mph - -  
8:20 PM 78.8 °F - 64.4 °F 61% 29.89 in - WNW 9.2 mph - N/A   Clear
8:50 PM 78.8 °F - 66.2 °F 65% 29.92 in - WNW 8.1 mph - N/A   Clear
9:20 PM 78.8 °F - 66.2 °F 65% 29.92 in - WNW 6.9 mph - N/A   Clear
9:50 PM 77.0 °F - 68.0 °F 74% 29.92 in - WNW 5.8 mph - N/A   Clear
10:20 PM 77.0 °F - 66.2 °F 69% 29.92 in - NW 4.6 mph - N/A   Clear
10:50 PM 77.0 °F - 66.2 °F 69% 29.92 in - Variable 4.6 mph - N/A   Clear
11:00 PM 78 °F - 67 °F 61% 29.93 in 19 mi NW 4.6 mph - -  
11:20 PM 77.0 °F - 68.0 °F 74% 29.92 in - NW 3.5 mph - N/A   Clear
11:50 PM 77.0 °F - 68.0 °F 74% 29.92 in - Variable 2.3 mph - N/A   Clear